Current Weather Conditions: station 63109

sailwx.info

Wind from 240 at 15 knots

Air temperature 6.5° C

Last reported at 2018-Feb-17 19:00 UTC.
Time now 2018-Feb-17 20:08 UTC

Location: N 59°36' E 001°30'.
View on Google Maps.

See reports from other nearby stations

  
Tides and Currents Weather Stations Pressure Air Temp Water Temp Dewpoint Dewpoint Depression Visibility Wind Speed Wind Dir Waves Ship Positions
date/time (UTC)wind fromknots sea level pressurealtimeterstation pressurevisibilityair tempwater tempwave heightnotes
2018-Feb-17 19:00 240 15 6.5
2018-Feb-17 18:00 210 18 7.7
2018-Feb-17 17:00 210 18 7.7
2018-Feb-17 16:00 220 20 7.7
2018-Feb-17 15:00 220 19 7.6
2018-Feb-17 14:00 220 20 7.4
2018-Feb-17 13:00 200 20 6.9
2018-Feb-17 12:00 210 20 6.7
2018-Feb-17 11:00 210 21 6.6
2018-Feb-17 10:00 200 20 6.3
2018-Feb-17 09:00 210 25 7.1
2018-Feb-17 08:00 210 24 7.0
2018-Feb-17 07:00 210 25 7.0
2018-Feb-17 06:00 210 24 7.6
2018-Feb-17 05:00 200 24 6.8
2018-Feb-17 04:00 200 21 7.1
2018-Feb-17 03:00 190 21 6.8
2018-Feb-17 02:00 190 20 6.8
2018-Feb-17 01:00 190 20 6.4
2018-Feb-17 00:00 190 19 6.3
2018-Feb-16 23:00 200 14 6.7
2018-Feb-16 22:00 210 17 7.4
2018-Feb-16 21:00 210 14 7.2
2018-Feb-16 20:00 210 15 7.3
2018-Feb-16 19:00 220 13 7.3
2018-Feb-16 18:00 240 14 5.9
2018-Feb-16 17:00 230 15 6.0
2018-Feb-16 16:00 240 14 5.9
2018-Feb-16 15:00 240 15 6.0
2018-Feb-16 14:00 240 15 6.0
2018-Feb-16 13:00 240 15 6.0
2018-Feb-16 12:00 250 15 5.7
2018-Feb-16 11:00 270 12 5.4
2018-Feb-16 10:00 260 17 5.7
2018-Feb-16 09:00 260 18 5.7
2018-Feb-16 08:00 260 20 5.9
2018-Feb-16 07:00 270 20 6.1
2018-Feb-16 06:00 270 19 6.3
2018-Feb-16 05:00 270 20 6.4
2018-Feb-16 04:00 270 21 6.5
2018-Feb-16 03:00 270 21 6.5
2018-Feb-16 02:00 270 21 6.4
2018-Feb-16 01:00 260 20 6.4
2018-Feb-16 00:00 260 20 6.5
2018-Feb-15 23:00 250 20 6.3
2018-Feb-15 22:00 250 20 6.2
2018-Feb-15 21:00 200 15 5.8
2018-Feb-15 20:00 220 20 6.4